Terug naar catalogus

CZ-6A DEB

ActiefSSO
NORAD 54634·DEBRIS·🇨🇳 China

Gelanceerd Nov 11, 2022 vanaf Taiyuan Satellite Launch Center

Loading…

Volgende Passages (komende 24 uur)

TLE

VersSource: Space-Track

Epoch: Sep 14, 2026, 21:12 UTC

1 54634U 22151PL  26257.88399964  .00004764  00000-0  17080-2 0  9990
2 54634  98.7744 277.6530 0032077  19.5380 340.7026 14.34111858198037

Volg CZ-6A DEB in realtime met AllMySat

Download on the App Store